When you browse on this site, cookies collect data to enhance your experience and personalize the content and advertising you see.
Visit our Privacy Policy to learn more. By continuing to use the site, you agree to this use of cookies and data.
  • In Czech Republic
  • List of Countries
  • For 7 days
  • Water Temperature
  • Satellite Maps
  • Weather Map
  • Weather Widgets
  • user-avatar
    Login

    Hourly Weather Male Ciche

    Today, 16 January, Wednesday

    Time Temperature Precipitation Wind Pressure Humidity
    00:00 -10°C° 1.1 mm 4 mps 611 mmHg 94%
    01:00 -7°C° 0 mm 1 mps 611 mmHg 94%
    02:00 -7°C° 1.2 mm 2 mps 611 mmHg 94%
    03:00 -8°C° 1.2 mm 3 mps 611 mmHg 93%
    04:00 -9°C° 1.2 mm 4 mps 612 mmHg 93%
    05:00 -9°C° 0.8 mm 4 mps 612 mmHg 93%
    06:00 -8°C° 0.8 mm 4 mps 612 mmHg 93%
    07:00 -8°C° 0.8 mm 4 mps 613 mmHg 93%
    08:00 -7°C° 0.4 mm 3 mps 613 mmHg 94%
    09:00 -6°C° 0.4 mm 3 mps 613 mmHg 95%
    10:00 -6°C° 0.4 mm 3 mps 614 mmHg 96%
    11:00 -5°C° 0.3 mm 2 mps 614 mmHg 96%
    12:00 -5°C° 0.3 mm 2 mps 614 mmHg 97%
    13:00 -5°C° 0.3 mm 2 mps 615 mmHg 98%
    14:00 -5°C° 0.1 mm 2 mps 615 mmHg 97%
    15:00 -3°C° 0.1 mm 1 mps 615 mmHg 97%
    16:00 -4°C° 0.1 mm 1 mps 615 mmHg 96%
    17:00 -4°C° 0 mm 1 mps 615 mmHg 96%
    18:00 -7°C° 0 mm 2 mps 614 mmHg 95%
    19:00 -8°C° 0 mm 2 mps 614 mmHg 95%
    20:00 -8°C° 0 mm 2 mps 614 mmHg 94%
    21:00 -8°C° 0 mm 2 mps 614 mmHg 94%
    22:00 -8°C° 0 mm 2 mps 614 mmHg 93%
    23:00 -8°C° 0 mm 2 mps 614 mmHg 91%

    Tomorrow, 17 January, Thursday

    Time Temperature Precipitation Wind Pressure Humidity
    00:00 -8°C° 0 mm 2 mps 613 mmHg 90%
    01:00 -9°C° 0 mm 2 mps 613 mmHg 88%
    02:00 -9°C° 0 mm 2 mps 613 mmHg 85%
    03:00 -9°C° 0 mm 2 mps 613 mmHg 83%
    04:00 -10°C° 0 mm 3 mps 612 mmHg 80%
    05:00 -10°C° 0 mm 3 mps 612 mmHg 80%
    06:00 -10°C° 0 mm 3 mps 612 mmHg 80%
    07:00 -10°C° 0 mm 3 mps 612 mmHg 80%
    08:00 -9°C° 0 mm 3 mps 613 mmHg 80%
    09:00 -8°C° 0 mm 3 mps 613 mmHg 81%
    10:00 -7°C° 0 mm 3 mps 613 mmHg 81%
    11:00 -7°C° 0 mm 3 mps 614 mmHg 85%
    12:00 -6°C° 0 mm 3 mps 614 mmHg 88%
    13:00 -6°C° 0 mm 3 mps 614 mmHg 92%
    14:00 -6°C° 0 mm 3 mps 613 mmHg 92%
    15:00 -7°C° 0 mm 3 mps 613 mmHg 92%
    16:00 -8°C° 0 mm 3 mps 612 mmHg 92%
    17:00 -8°C° 0 mm 3 mps 612 mmHg 92%
    18:00 -8°C° 0 mm 3 mps 612 mmHg 92%
    19:00 -8°C° 0 mm 3 mps 612 mmHg 92%
    20:00 -8°C° 0.3 mm 3 mps 612 mmHg 93%
    21:00 -7°C° 0.3 mm 3 mps 613 mmHg 93%
    22:00 -7°C° 0.3 mm 3 mps 613 mmHg 94%
    23:00 -7°C° 0.1 mm 3 mps 613 mmHg 94%

    Day after tomorrow, 18 January, Friday

    Time Temperature Precipitation Wind Pressure Humidity
    00:00 -8°C° 0.1 mm 3 mps 612 mmHg 93%
    01:00 -9°C° 0.1 mm 3 mps 612 mmHg 93%
    02:00 -9°C° 0.3 mm 3 mps 612 mmHg 93%
    03:00 -9°C° 0.3 mm 3 mps 613 mmHg 94%
    04:00 -8°C° 0.3 mm 2 mps 613 mmHg 94%
    05:00 -10°C° 0.1 mm 3 mps 613 mmHg 93%
    06:00 -12°C° 0.1 mm 3 mps 613 mmHg 91%
    07:00 -13°C° 0.1 mm 3 mps 613 mmHg 90%
    08:00 -13°C° 0.1 mm 3 mps 613 mmHg 89%
    09:00 -14°C° 0.1 mm 4 mps 614 mmHg 88%
    10:00 -14°C° 0.1 mm 4 mps 614 mmHg 87%
    11:00 -14°C° 0.2 mm 4 mps 615 mmHg 87%
    12:00 -12°C° 0.2 mm 4 mps 615 mmHg 87%
    13:00 -12°C° 0.2 mm 4 mps 616 mmHg 86%
    14:00 -13°C° 0.1 mm 3 mps 616 mmHg 88%
    15:00 -12°C° 0.1 mm 2 mps 616 mmHg 89%
    16:00 -13°C° 0.1 mm 2 mps 616 mmHg 91%
    17:00 -12°C° 0 mm 1 mps 616 mmHg 92%
    18:00 -13°C° 0 mm 1 mps 616 mmHg 92%
    19:00 -15°C° 0 mm 1 mps 616 mmHg 93%
    20:00 -15°C° 0 mm 1 mps 616 mmHg 92%
    21:00 -15°C° 0 mm 1 mps 616 mmHg 92%
    22:00 -16°C° 0 mm 1 mps 616 mmHg 91%
    23:00 -16°C° 0 mm 1 mps 616 mmHg 90%

    19 January, Saturday

    Time Temperature Precipitation Wind Pressure Humidity
    00:00 -15°C° 0 mm 1 mps 616 mmHg 89%
    01:00 -15°C° 0 mm 1 mps 616 mmHg 88%
    02:00 -16°C° 0 mm 1 mps 616 mmHg 88%
    03:00 -16°C° 0 mm 1 mps 616 mmHg 88%
    04:00 -16°C° 0 mm 1 mps 616 mmHg 89%
    05:00 -16°C° 0 mm 1 mps 616 mmHg 89%
    06:00 -16°C° 0 mm 1 mps 616 mmHg 89%
    07:00 -16°C° 0 mm 1 mps 616 mmHg 89%
    08:00 -14°C° 0 mm 1 mps 617 mmHg 89%
    09:00 -13°C° 0 mm 1 mps 617 mmHg 88%
    10:00 -11°C° 0 mm 1 mps 618 mmHg 88%
    11:00 -10°C° 0 mm 1 mps 618 mmHg 85%
    12:00 -9°C° 0 mm 0 mps 619 mmHg 83%
    13:00 -8°C° 0 mm 0 mps 619 mmHg 81%
    14:00 -9°C° 0 mm 0 mps 618 mmHg 84%
    15:00 -11°C° 0 mm 0 mps 617 mmHg 88%
    16:00 -12°C° 0 mm 0 mps 616 mmHg 91%
    17:00 -12°C° 0 mm 0 mps 616 mmHg 92%
    18:00 -12°C° 0 mm 0 mps 616 mmHg 93%
    19:00 -12°C° 0 mm 0 mps 616 mmHg 93%
    20:00 -12°C° 0.1 mm 0 mps 616 mmHg 94%
    21:00 -12°C° 0.1 mm 0 mps 616 mmHg 94%
    22:00 -12°C° 0.1 mm 0 mps 616 mmHg 94%
    23:00 -12°C° 0.2 mm 0 mps 616 mmHg 94%

    20 January, Sunday

    Time Temperature Precipitation Wind Pressure Humidity
    00:00 -12°C° 0.2 mm 0 mps 616 mmHg 94%
    01:00 -12°C° 0.2 mm 0 mps 615 mmHg 94%
    02:00 -13°C° 0.1 mm 0 mps 615 mmHg 94%
    03:00 -13°C° 0.1 mm 0 mps 615 mmHg 94%
    04:00 -14°C° 0.1 mm 1 mps 614 mmHg 93%
    05:00 -14°C° 0 mm 1 mps 614 mmHg 93%
    06:00 -14°C° 0 mm 1 mps 614 mmHg 93%
    07:00 -15°C° 0 mm 1 mps 614 mmHg 93%
    08:00 -13°C° 0 mm 1 mps 615 mmHg 92%
    09:00 -12°C° 0 mm 1 mps 615 mmHg 91%
    10:00 -11°C° 0 mm 1 mps 616 mmHg 91%
    11:00 -11°C° 0 mm 1 mps 616 mmHg 89%
    12:00 -10°C° 0 mm 1 mps 617 mmHg 88%
    13:00 -10°C° 0 mm 2 mps 617 mmHg 86%
    14:00 -11°C° 0 mm 1 mps 616 mmHg 89%
    15:00 -12°C° 0 mm 1 mps 616 mmHg 91%
    16:00 -13°C° 0 mm 1 mps 615 mmHg 94%
    17:00 -14°C° 0 mm 1 mps 615 mmHg 93%
    18:00 -15°C° 0 mm 1 mps 615 mmHg 93%
    19:00 -16°C° 0 mm 1 mps 615 mmHg 92%
    20:00 -16°C° 0 mm 1 mps 615 mmHg 92%
    21:00 -17°C° 0 mm 1 mps 616 mmHg 92%
    22:00 -17°C° 0 mm 1 mps 616 mmHg 92%
    23:00 -17°C° 0 mm 1 mps 616 mmHg 92%

    21 January, Monday

    Time Temperature Precipitation Wind Pressure Humidity
    00:00 -16°C° 0 mm 1 mps 617 mmHg 92%
    01:00 -16°C° 0 mm 1 mps 617 mmHg 93%
    02:00 -16°C° 0 mm 1 mps 617 mmHg 93%
    03:00 -16°C° 0 mm 1 mps 617 mmHg 94%
    04:00 -16°C° 0 mm 1 mps 618 mmHg 94%
    05:00 -16°C° 0 mm 1 mps 618 mmHg 94%
    06:00 -15°C° 0 mm 1 mps 619 mmHg 95%
    07:00 -15°C° 0 mm 1 mps 620 mmHg 95%
    08:00 -14°C° 0 mm 1 mps 620 mmHg 93%
    09:00 -13°C° 0 mm 1 mps 621 mmHg 92%
    10:00 -12°C° 0 mm 1 mps 622 mmHg 90%
    11:00 -12°C° 0 mm 1 mps 622 mmHg 89%
    12:00 -12°C° 0 mm 1 mps 623 mmHg 88%
    13:00 -11°C° 0 mm 1 mps 623 mmHg 86%
    14:00 -12°C° 0 mm 1 mps 622 mmHg 88%
    15:00 -13°C° 0 mm 1 mps 622 mmHg 90%
    16:00 -14°C° 0 mm 1 mps 622 mmHg 93%
    17:00 -16°C° 0 mm 1 mps 621 mmHg 93%
    18:00 -17°C° 0 mm 1 mps 621 mmHg 94%
    19:00 -18°C° 0 mm 1 mps 620 mmHg 95%
    20:00 -19°C° 0 mm 1 mps 620 mmHg 94%
    21:00 -19°C° 0 mm 1 mps 620 mmHg 93%
    22:00 -19°C° 0 mm 1 mps 620 mmHg 92%
    23:00 -19°C° 0 mm 1 mps 620 mmHg 90%
    Show more